QPF
0.00 0.00 0.00 0.00 0.00 0.00 0.00 0.00 0.00 0.00 0.00 0.00 0.01 0.02 0.04 0.04 0.03 0.05 0.03 0.02 0.02 0.01 0.02 0.02 0.02 0.03 0.04 0.05 0.06 0.10 0.14 0.24 0.26 0.33 0.37 0.35 0.31 0.26 0.25 0.28 0.28 0.29 0.30 0.29
0.00 0.00 0.00 0.00 0.00 0.00 0.00 0.00 0.00 0.00 0.00 0.00 0.01 0.02 0.07 0.09 0.06 0.07 0.05 0.05 0.04 0.04 0.03 0.03 0.03 0.03 0.04 0.04 0.06 0.09 0.13 0.15 0.17 0.20 0.25 0.26 0.28 0.26 0.23 0.22 0.22 0.22 0.24 0.26
0.00 0.00 0.00 0.00 0.00 0.00 0.00 0.00 0.00 0.00 0.00 0.01 0.02 0.03 0.05 0.09 0.10 0.12 0.10 0.09 0.09 0.07 0.07 0.06 0.06 0.06 0.06 0.09 0.10 0.08 0.12 0.17 0.16 0.15 0.19 0.20 0.21 0.24 0.22 0.20 0.22 0.20 0.21 0.22
0.00 0.00 0.00 0.00 0.00 0.00 0.00 0.00 0.00 0.00 0.00 0.01 0.01 0.02 0.04 0.07 0.09 0.09 0.09 0.08 0.07 0.05 0.06 0.07 0.05 0.05 0.05 0.07 0.10 0.10 0.14 0.16 0.21 0.19 0.16 0.16 0.16 0.19 0.17 0.14 0.15 0.14 0.14 0.16
0.00 0.00 0.00 0.00 0.00 0.00 0.00 0.00 0.00 0.00 0.01 0.00 0.00 0.01 0.03 0.07 0.08 0.09 0.09 0.07 0.06 0.04 0.05 0.05 0.04 0.04 0.03 0.04 0.05 0.06 0.10 0.10 0.12 0.17 0.18 0.17 0.17 0.16 0.15 0.12 0.13 0.14 0.10 0.09
0.00 0.00 0.00 0.00 0.00 0.00 0.00 0.00 0.00 0.00 0.00 0.00 0.01 0.01 0.03 0.06 0.09 0.13 0.14 0.12 0.10 0.08 0.05 0.04 0.03 0.03 0.03 0.03 0.04 0.04 0.05 0.05 0.06 0.09 0.14 0.16 0.14 0.12 0.12 0.12 0.11 0.13 0.13 0.11
0.01 0.00 0.00 0.00 0.00 0.00 0.00 0.00 0.01 0.01 0.01 0.01 0.01 0.02 0.06 0.08 0.10 0.14 0.22 0.27 0.21 0.16 0.10 0.04 0.03 0.03 0.03 0.03 0.04 0.05 0.05 0.04 0.05 0.06 0.08 0.10 0.12 0.11 0.09 0.09 0.09 0.10 0.10 0.10
0.00 0.01 0.00 0.00 0.00 0.00 0.00 0.00 0.01 0.02 0.02 0.02 0.03 0.08 0.13 0.12 0.11 0.15 0.22 0.24 0.24 0.17 0.09 0.05 0.04 0.04 0.05 0.04 0.03 0.05 0.06 0.07 0.06 0.05 0.06 0.07 0.09 0.10 0.10 0.07 0.06 0.05 0.05 0.06
0.00 0.01 0.01 0.00 0.00 0.00 0.00 0.00 0.01 0.01 0.02 0.04 0.07 0.16 0.18 0.16 0.14 0.21 0.19 0.15 0.14 0.09 0.04 0.02 0.02 0.02 0.02 0.02 0.02 0.03 0.03 0.03 0.03 0.03 0.03 0.03 0.04 0.06 0.07 0.05 0.03 0.03 0.02 0.03
0.00 0.00 0.01 0.01 0.00 0.00 0.01 0.01 0.02 0.02 0.03 0.05 0.07 0.11 0.15 0.17 0.15 0.25 0.19 0.09 0.06 0.04 0.02 0.02 0.02 0.02 0.01 0.02 0.02 0.02 0.03 0.02 0.02 0.02 0.02 0.02 0.02 0.02 0.03 0.02 0.02 0.02 0.01 0.01
0.00 0.00 0.01 0.01 0.01 0.01 0.01 0.01 0.02 0.02 0.03 0.04 0.06 0.08 0.09 0.12 0.10 0.08 0.07 0.06 0.05 0.03 0.02 0.01 0.01 0.01 0.02 0.03 0.04 0.03 0.03 0.02 0.02 0.02 0.02 0.02 0.02 0.01 0.02 0.02 0.02 0.02 0.01 0.01
0.02 0.01 0.02 0.02 0.02 0.01 0.02 0.01 0.02 0.03 0.02 0.02 0.04 0.07 0.09 0.07 0.05 0.04 0.04 0.07 0.07 0.04 0.02 0.02 0.02 0.02 0.02 0.02 0.03 0.04 0.03 0.03 0.03 0.03 0.03 0.03 0.03 0.02 0.02 0.02 0.01 0.01 0.02 0.02
0.01 0.01 0.02 0.04 0.04 0.01 0.01 0.01 0.02 0.02 0.02 0.02 0.04 0.06 0.07 0.04 0.03 0.03 0.03 0.03 0.03 0.02 0.01 0.01 0.03 0.02 0.02 0.02 0.02 0.02 0.02 0.03 0.04 0.04 0.04 0.04 0.03 0.03 0.02 0.02 0.01 0.01 0.02 0.02
0.01 0.01 0.03 0.05 0.04 0.02 0.01 0.01 0.02 0.02 0.02 0.02 0.03 0.05 0.06 0.04 0.04 0.04 0.03 0.02 0.01 0.01 0.01 0.01 0.01 0.02 0.02 0.02 0.03 0.04 0.04 0.04 0.05 0.05 0.04 0.04 0.04 0.03 0.03 0.03 0.02 0.01 0.01 0.00
0.02 0.02 0.02 0.02 0.02 0.02 0.02 0.02 0.02 0.02 0.02 0.02 0.02 0.04 0.05 0.05 0.05 0.04 0.02 0.01 0.01 0.01 0.01 0.01 0.01 0.01 0.02 0.03 0.03 0.04 0.04 0.05 0.05 0.04 0.03 0.03 0.03 0.03 0.03 0.03 0.02 0.01 0.00 0.00
0.03 0.02 0.02 0.02 0.02 0.03 0.03 0.02 0.02 0.02 0.02 0.02 0.03 0.04 0.04 0.06 0.07 0.04 0.02 0.02 0.01 0.01 0.01 0.01 0.02 0.02 0.02 0.02 0.02 0.02 0.03 0.04 0.05 0.05 0.04 0.03 0.03 0.02 0.02 0.02 0.02 0.01 0.00 0.00
0.05 0.04 0.03 0.03 0.03 0.04 0.06 0.05 0.04 0.04 0.03 0.03 0.03 0.04 0.04 0.03 0.03 0.02 0.01 0.01 0.01 0.02 0.02 0.02 0.02 0.02 0.02 0.02 0.02 0.02 0.03 0.04 0.04 0.05 0.05 0.04 0.03 0.02 0.02 0.01 0.01 0.01 0.00 0.00
0.04 0.04 0.04 0.03 0.04 0.07 0.06 0.05 0.05 0.04 0.04 0.03 0.03 0.03 0.02 0.02 0.02 0.01 0.01 0.01 0.01 0.02 0.02 0.02 0.02 0.02 0.02 0.02 0.02 0.02 0.03 0.03 0.03 0.03 0.03 0.03 0.03 0.02 0.01 0.01 0.01 0.01 0.01 0.01
0.02 0.04 0.04 0.05 0.08 0.10 0.08 0.05 0.07 0.08 0.05 0.03 0.02 0.02 0.01 0.01 0.01 0.02 0.01 0.01 0.01 0.01 0.02 0.02 0.02 0.02 0.03 0.03 0.03 0.04 0.04 0.03 0.02 0.02 0.02 0.03 0.02 0.01 0.01 0.01 0.00 0.00 0.00 0.00
0.02 0.03 0.04 0.07 0.12 0.16 0.13 0.08 0.07 0.07 0.06 0.03 0.02 0.01 0.01 0.00 0.01 0.02 0.02 0.02 0.02 0.02 0.03 0.03 0.03 0.03 0.03 0.04 0.03 0.03 0.03 0.03 0.02 0.02 0.01 0.02 0.01 0.01 0.01 0.00 0.00 0.00 0.00 0.00
0.03 0.05 0.07 0.10 0.14 0.15 0.10 0.04 0.03 0.05 0.04 0.02 0.01 0.01 0.01 0.01 0.01 0.01 0.01 0.02 0.03 0.02 0.02 0.03 0.03 0.02 0.03 0.03 0.02 0.03 0.02 0.02 0.02 0.01 0.01 0.01 0.01 0.01 0.01 0.00 0.00 0.00 0.00 0.00
0.06 0.08 0.10 0.12 0.15 0.12 0.04 0.03 0.03 0.03 0.01 0.01 0.01 0.01 0.01 0.01 0.01 0.00 0.00 0.01 0.02 0.03 0.02 0.02 0.02 0.02 0.02 0.02 0.02 0.03 0.03 0.02 0.01 0.01 0.00 0.01 0.01 0.01 0.00 0.00 0.01 0.01 0.01 0.01
0.08 0.09 0.08 0.08 0.10 0.07 0.03 0.02 0.01 0.01 0.01 0.00 0.00 0.00 0.00 0.00 0.01 0.01 0.00 0.01 0.02 0.03 0.02 0.02 0.01 0.02 0.02 0.02 0.02 0.02 0.02 0.02 0.02 0.01 0.01 0.01 0.01 0.01 0.01 0.00 0.00 0.00 0.00 0.01
0.14 0.09 0.08 0.10 0.09 0.07 0.04 0.02 0.01 0.00 0.00 0.00 0.00 0.00 0.00 0.00 0.00 0.01 0.01 0.01 0.01 0.02 0.02 0.02 0.02 0.02 0.02 0.02 0.02 0.02 0.02 0.02 0.03 0.02 0.01 0.00 0.00 0.00 0.01 0.00 0.00 0.00 0.00 0.00
0.16 0.11 0.11 0.14 0.11 0.07 0.05 0.02 0.00 0.00 0.00 0.00 0.00 0.00 0.00 0.00 0.00 0.01 0.01 0.01 0.01 0.01 0.02 0.02 0.03 0.03 0.02 0.02 0.02 0.02 0.02 0.02 0.01 0.01 0.00 0.00 0.00 0.00 0.01 0.00 0.00 0.00 0.00 0.00
0.12 0.13 0.09 0.12 0.13 0.08 0.05 0.02 0.00 0.00 0.00 0.01 0.00 0.00 0.00 0.00 0.00 0.01 0.01 0.01 0.01 0.01 0.02 0.02 0.02 0.02 0.02 0.02 0.02 0.02 0.02 0.01 0.01 0.01 0.00 0.00 0.00 0.00 0.00 0.00 0.00 0.00 0.00 0.00
MSLP
1011.79 1012.47 1012.92 1013.14 1013.14 1012.98 1012.73 1012.46 1012.23 1012.07 1012.00 1012.05 1012.20 1012.44 1012.77 1013.18 1013.64 1014.13 1014.61 1015.03 1015.34 1015.50 1015.47 1015.26 1014.89 1014.42 1013.92 1013.45 1013.10 1012.89 1012.85 1012.95 1013.14 1013.36 1013.55 1013.68 1013.70 1013.63 1013.50 1013.36 1013.24 1013.19 1013.22 1013.35
1011.94 1012.42 1012.68 1012.73 1012.64 1012.48 1012.30 1012.18 1012.15 1012.22 1012.38 1012.61 1012.89 1013.20 1013.54 1013.91 1014.31 1014.73 1015.15 1015.54 1015.85 1016.04 1016.08 1015.92 1015.61 1015.16 1014.65 1014.14 1013.70 1013.38 1013.21 1013.18 1013.25 1013.38 1013.50 1013.58 1013.60 1013.54 1013.44 1013.33 1013.25 1013.24 1013.30 1013.44
1011.82 1012.07 1012.12 1012.04 1011.89 1011.76 1011.72 1011.80 1012.02 1012.35 1012.74 1013.16 1013.56 1013.92 1014.24 1014.54 1014.85 1015.18 1015.54 1015.90 1016.23 1016.48 1016.60 1016.55 1016.32 1015.95 1015.46 1014.93 1014.43 1014.02 1013.72 1013.56 1013.51 1013.54 1013.59 1013.63 1013.64 1013.60 1013.54 1013.48 1013.45 1013.47 1013.56 1013.71
1011.47 1011.49 1011.37 1011.18 1011.02 1010.97 1011.10 1011.43 1011.92 1012.52 1013.16 1013.75 1014.25 1014.63 1014.91 1015.12 1015.31 1015.54 1015.82 1016.15 1016.51 1016.83 1017.06 1017.14 1017.04 1016.76 1016.34 1015.83 1015.29 1014.80 1014.40 1014.12 1013.96 1013.88 1013.86 1013.86 1013.85 1013.84 1013.81 1013.80 1013.82 1013.88 1013.99 1014.13
1011.02 1010.84 1010.57 1010.32 1010.19 1010.27 1010.61 1011.20 1011.97 1012.83 1013.68 1014.42 1014.99 1015.36 1015.57 1015.67 1015.73 1015.84 1016.04 1016.34 1016.72 1017.12 1017.46 1017.68 1017.72 1017.57 1017.24 1016.77 1016.24 1015.70 1015.22 1014.84 1014.56 1014.40 1014.31 1014.27 1014.25 1014.24 1014.25 1014.27 1014.32 1014.41 1014.52 1014.65
1010.61 1010.27 1009.90 1009.62 1009.56 1009.80 1010.34 1011.18 1012.20 1013.29 1014.31 1015.15 1015.75 1016.09 1016.21 1016.18 1016.12 1016.11 1016.22 1016.49 1016.88 1017.35 1017.81 1018.17 1018.36 1018.34 1018.11 1017.71 1017.20 1016.65 1016.12 1015.67 1015.32 1015.07 1014.92 1014.84 1014.81 1014.80 1014.82 1014.86 1014.93 1015.01 1015.12 1015.22
1010.39 1009.92 1009.48 1009.22 1009.24 1009.62 1010.35 1011.38 1012.59 1013.84 1014.97 1015.87 1016.46 1016.75 1016.77 1016.63 1016.44 1016.33 1016.37 1016.61 1017.02 1017.55 1018.10 1018.58 1018.90 1019.01 1018.90 1018.59 1018.12 1017.59 1017.04 1016.56 1016.16 1015.87 1015.68 1015.56 1015.51 1015.49 1015.51 1015.54 1015.60 1015.66 1015.74 1015.82
1010.42 1009.86 1009.40 1009.16 1009.25 1009.73 1010.59 1011.74 1013.06 1014.38 1015.54 1016.44 1017.00 1017.22 1017.16 1016.93 1016.66 1016.49 1016.49 1016.71 1017.14 1017.72 1018.35 1018.92 1019.35 1019.58 1019.57 1019.35 1018.96 1018.47 1017.95 1017.47 1017.06 1016.75 1016.53 1016.40 1016.32 1016.29 1016.28 1016.29 1016.32 1016.35 1016.38 1016.42
1010.71 1010.11 1009.64 1009.42 1009.55 1010.08 1010.97 1012.15 1013.47 1014.76 1015.89 1016.73 1017.23 1017.40 1017.29 1017.03 1016.74 1016.56 1016.56 1016.80 1017.26 1017.88 1018.56 1019.21 1019.72 1020.03 1020.12 1019.99 1019.68 1019.26 1018.80 1018.36 1017.98 1017.68 1017.46 1017.32 1017.23 1017.17 1017.13 1017.11 1017.08 1017.07 1017.05 1017.04
1011.20 1010.59 1010.12 1009.91 1010.04 1010.54 1011.39 1012.48 1013.69 1014.88 1015.89 1016.64 1017.08 1017.21 1017.11 1016.88 1016.65 1016.53 1016.60 1016.89 1017.40 1018.06 1018.78 1019.47 1020.03 1020.40 1020.56 1020.51 1020.29 1019.96 1019.58 1019.21 1018.88 1018.62 1018.43 1018.29 1018.19 1018.11 1018.04 1017.97 1017.90 1017.83 1017.77 1017.71
1011.75 1011.17 1010.72 1010.50 1010.59 1011.00 1011.70 1012.62 1013.64 1014.64 1015.49 1016.13 1016.51 1016.65 1016.62 1016.50 1016.40 1016.42 1016.62 1017.02 1017.60 1018.30 1019.05 1019.75 1020.33 1020.73 1020.94 1020.95 1020.81 1020.57 1020.28 1020.00 1019.74 1019.53 1019.37 1019.25 1019.16 1019.06 1018.97 1018.86 1018.75 1018.64 1018.53 1018.44
1012.25 1011.72 1011.30 1011.07 1011.09 1011.36 1011.86 1012.54 1013.31 1014.07 1014.74 1015.25 1015.60 1015.79 1015.88 1015.95 1016.06 1016.28 1016.66 1017.20 1017.87 1018.62 1019.38 1020.07 1020.64 1021.04 1021.27 1021.33 1021.26 1021.10 1020.90 1020.69 1020.51 1020.36 1020.25 1020.15 1020.06 1019.96 1019.85 1019.73 1019.59 1019.46 1019.33 1019.22
1012.58 1012.14 1011.77 1011.54 1011.47 1011.58 1011.85 1012.27 1012.76 1013.26 1013.74 1014.15 1014.49 1014.77 1015.03 1015.32 1015.68 1016.15 1016.74 1017.43 1018.20 1019.00 1019.76 1020.43 1020.97 1021.35 1021.57 1021.66 1021.63 1021.54 1021.41 1021.28 1021.17 1021.08 1021.00 1020.92 1020.84 1020.75 1020.64 1020.52 1020.38 1020.25 1020.12 1020.01
1012.72 1012.39 1012.09 1011.85 1011.70 1011.65 1011.71 1011.86 1012.08 1012.35 1012.66 1012.98 1013.34 1013.73 1014.18 1014.71 1015.34 1016.06 1016.86 1017.72 1018.58 1019.42 1020.16 1020.80 1021.28 1021.63 1021.83 1021.92 1021.93 1021.88 1021.82 1021.74 1021.68 1021.63 1021.57 1021.52 1021.45 1021.37 1021.28 1021.17 1021.06 1020.96 1020.86 1020.78
1012.68 1012.47 1012.24 1012.02 1011.81 1011.63 1011.50 1011.42 1011.41 1011.48 1011.64 1011.91 1012.30 1012.81 1013.45 1014.21 1015.08 1016.03 1017.02 1018.01 1018.95 1019.79 1020.52 1021.10 1021.53 1021.83 1022.01 1022.10 1022.13 1022.12 1022.09 1022.06 1022.03 1022.00 1021.96 1021.91 1021.86 1021.80 1021.73 1021.66 1021.60 1021.55 1021.51 1021.48
1012.54 1012.44 1012.28 1012.08 1011.84 1011.56 1011.28 1011.02 1010.84 1010.76 1010.82 1011.06 1011.48 1012.10 1012.90 1013.86 1014.92 1016.04 1017.17 1018.25 1019.22 1020.07 1020.76 1021.29 1021.67 1021.93 1022.09 1022.18 1022.22 1022.24 1022.24 1022.24 1022.23 1022.20 1022.17 1022.12 1022.08 1022.03 1022.00 1021.98 1021.98 1022.01 1022.04 1022.08
1012.40 1012.37 1012.28 1012.09 1011.81 1011.47 1011.08 1010.71 1010.40 1010.23 1010.24 1010.46 1010.93 1011.64 1012.56 1013.65 1014.84 1016.07 1017.27 1018.39 1019.36 1020.18 1020.83 1021.31 1021.65 1021.89 1022.04 1022.15 1022.22 1022.27 1022.30 1022.32 1022.31 1022.29 1022.25 1022.20 1022.16 1022.13 1022.13 1022.17 1022.25 1022.35 1022.47 1022.58
1012.36 1012.35 1012.26 1012.06 1011.76 1011.36 1010.92 1010.48 1010.11 1009.90 1009.89 1010.13 1010.63 1011.40 1012.39 1013.55 1014.81 1016.08 1017.29 1018.39 1019.34 1020.11 1020.71 1021.16 1021.48 1021.72 1021.90 1022.03 1022.15 1022.24 1022.31 1022.34 1022.35 1022.32 1022.28 1022.22 1022.18 1022.17 1022.21 1022.30 1022.44 1022.62 1022.82 1023.00
1012.47 1012.40 1012.26 1012.02 1011.68 1011.24 1010.76 1010.29 1009.92 1009.70 1009.71 1009.98 1010.53 1011.33 1012.36 1013.54 1014.79 1016.04 1017.22 1018.27 1019.17 1019.89 1020.45 1020.88 1021.21 1021.48 1021.69 1021.89 1022.06 1022.21 1022.32 1022.39 1022.41 1022.39 1022.34 1022.28 1022.24 1022.24 1022.31 1022.45 1022.64 1022.89 1023.15 1023.39
1012.71 1012.53 1012.28 1011.96 1011.54 1011.06 1010.56 1010.11 1009.76 1009.58 1009.64 1009.95 1010.54 1011.37 1012.40 1013.57 1014.79 1015.98 1017.10 1018.08 1018.91 1019.59 1020.13 1020.56 1020.91 1021.22 1021.50 1021.77 1022.01 1022.22 1022.39 1022.49 1022.54 1022.52 1022.48 1022.42 1022.39 1022.41 1022.50 1022.66 1022.90 1023.18 1023.48 1023.77
1013.02 1012.68 1012.28 1011.84 1011.34 1010.82 1010.31 1009.88 1009.59 1009.48 1009.61 1009.99 1010.62 1011.48 1012.51 1013.64 1014.81 1015.94 1016.98 1017.89 1018.66 1019.30 1019.83 1020.27 1020.66 1021.03 1021.38 1021.72 1022.03 1022.31 1022.53 1022.68 1022.75 1022.76 1022.72 1022.68 1022.65 1022.68 1022.79 1022.97 1023.23 1023.53 1023.85 1024.15
1013.32 1012.79 1012.23 1011.65 1011.06 1010.51 1010.01 1009.63 1009.41 1009.40 1009.62 1010.08 1010.77 1011.65 1012.67 1013.77 1014.88 1015.95 1016.92 1017.77 1018.50 1019.11 1019.63 1020.10 1020.53 1020.95 1021.36 1021.76 1022.14 1022.47 1022.73 1022.92 1023.02 1023.06 1023.04 1023.02 1023.01 1023.05 1023.16 1023.35 1023.61 1023.92 1024.24 1024.53
1013.51 1012.79 1012.08 1011.38 1010.73 1010.16 1009.69 1009.38 1009.26 1009.36 1009.68 1010.23 1010.98 1011.89 1012.91 1013.98 1015.05 1016.06 1016.97 1017.77 1018.47 1019.06 1019.59 1020.07 1020.53 1020.99 1021.44 1021.89 1022.30 1022.67 1022.96 1023.18 1023.31 1023.37 1023.39 1023.38 1023.40 1023.46 1023.58 1023.77 1024.02 1024.32 1024.62 1024.89
1013.50 1012.64 1011.81 1011.04 1010.36 1009.81 1009.41 1009.20 1009.19 1009.41 1009.84 1010.48 1011.29 1012.23 1013.25 1014.30 1015.32 1016.28 1017.15 1017.92 1018.59 1019.17 1019.70 1020.19 1020.66 1021.13 1021.60 1022.05 1022.48 1022.85 1023.16 1023.39 1023.55 1023.64 1023.68 1023.71 1023.76 1023.84 1023.98 1024.17 1024.41 1024.68 1024.95 1025.20
1013.24 1012.31 1011.43 1010.66 1010.01 1009.53 1009.23 1009.14 1009.26 1009.60 1010.14 1010.86 1011.72 1012.68 1013.69 1014.71 1015.70 1016.61 1017.44 1018.17 1018.82 1019.39 1019.91 1020.39 1020.86 1021.32 1021.77 1022.21 1022.62 1022.98 1023.28 1023.51 1023.68 1023.80 1023.88 1023.96 1024.04 1024.15 1024.30 1024.50 1024.73 1024.98 1025.22 1025.43
1012.70 1011.78 1010.94 1010.24 1009.70 1009.35 1009.19 1009.25 1009.52 1009.98 1010.61 1011.39 1012.27 1013.23 1014.21 1015.19 1016.12 1016.99 1017.78 1018.48 1019.10 1019.65 1020.16 1020.62 1021.06 1021.49 1021.91 1022.30 1022.67 1023.00 1023.28 1023.51 1023.69 1023.84 1023.96 1024.08 1024.21 1024.36 1024.54 1024.75 1024.97 1025.20 1025.40 1025.58
Thickness
5704 5688 5680 5688 5692 5693 5695 5693 5692 5704 5721 5714 5705 5699 5702 5707 5706 5701 5699 5699 5697 5694 5693 5695 5696 5697 5697 5698 5699 5699 5700 5701 5703 5703 5701 5697 5694 5694 5694 5693 5695 5698 5699 5700
5684 5680 5697 5703 5704 5700 5696 5690 5691 5703 5718 5711 5697 5692 5696 5699 5697 5696 5692 5688 5685 5683 5683 5684 5685 5686 5686 5687 5687 5688 5690 5692 5695 5696 5696 5694 5690 5687 5686 5686 5688 5690 5692 5694
5677 5692 5708 5704 5699 5697 5696 5692 5694 5697 5706 5705 5694 5681 5684 5687 5687 5684 5682 5679 5677 5676 5673 5673 5673 5672 5673 5674 5676 5679 5680 5682 5686 5688 5689 5687 5684 5680 5678 5678 5679 5680 5683 5685
5685 5700 5703 5700 5700 5700 5688 5707 5706 5701 5685 5674 5684 5659 5671 5673 5672 5670 5668 5667 5665 5664 5663 5662 5662 5661 5661 5662 5664 5667 5669 5672 5675 5678 5680 5679 5675 5671 5668 5668 5670 5671 5674 5675
5686 5700 5698 5696 5704 5708 5700 5710 5704 5697 5683 5670 5670 5657 5657 5665 5660 5659 5658 5657 5655 5652 5651 5651 5651 5650 5650 5651 5653 5655 5658 5660 5663 5667 5669 5668 5665 5662 5661 5660 5661 5662 5664 5666
5695 5708 5707 5707 5716 5717 5713 5701 5688 5675 5664 5651 5662 5654 5647 5652 5656 5655 5651 5649 5646 5643 5641 5640 5639 5639 5640 5641 5641 5643 5645 5648 5651 5654 5656 5657 5655 5654 5652 5651 5651 5651 5653 5655
5685 5698 5710 5715 5705 5709 5702 5672 5649 5646 5636 5640 5658 5650 5644 5653 5657 5654 5646 5640 5636 5633 5631 5630 5628 5628 5629 5629 5629 5630 5633 5634 5637 5640 5642 5643 5643 5643 5642 5641 5641 5641 5641 5642
5667 5673 5699 5709 5702 5693 5691 5674 5646 5635 5631 5637 5650 5642 5642 5648 5649 5647 5639 5632 5629 5626 5623 5620 5617 5617 5617 5617 5617 5618 5620 5622 5624 5626 5628 5630 5631 5630 5630 5630 5630 5630 5630 5630
5668 5674 5702 5710 5712 5701 5685 5673 5670 5649 5643 5634 5635 5638 5640 5641 5639 5636 5632 5626 5621 5617 5614 5611 5608 5607 5606 5605 5605 5606 5608 5610 5612 5614 5616 5616 5617 5618 5618 5618 5618 5618 5618 5618
5680 5672 5689 5702 5705 5699 5691 5679 5658 5645 5632 5626 5633 5634 5636 5636 5633 5629 5624 5619 5614 5608 5605 5601 5599 5597 5596 5595 5595 5596 5596 5598 5599 5601 5604 5604 5604 5605 5605 5606 5606 5606 5606 5607
5682 5669 5675 5684 5681 5680 5680 5674 5661 5647 5641 5629 5621 5632 5654 5647 5638 5628 5621 5614 5608 5603 5598 5594 5590 5587 5586 5585 5585 5585 5585 5586 5587 5589 5590 5591 5592 5592 5593 5593 5593 5593 5594 5594
5679 5663 5658 5671 5686 5691 5682 5675 5662 5645 5641 5637 5628 5631 5653 5647 5637 5626 5617 5608 5601 5596 5591 5586 5582 5579 5577 5575 5574 5574 5574 5574 5575 5576 5577 5578 5579 5580 5580 5580 5581 5581 5581 5581
5677 5658 5645 5650 5661 5675 5675 5677 5672 5657 5643 5634 5628 5632 5640 5636 5626 5618 5610 5602 5595 5589 5583 5579 5575 5571 5568 5566 5565 5563 5563 5563 5563 5564 5565 5566 5566 5567 5567 5568 5568 5569 5569 5569
5681 5658 5648 5644 5650 5662 5666 5674 5675 5661 5641 5639 5640 5637 5632 5627 5619 5610 5603 5595 5589 5583 5578 5573 5567 5563 5560 5558 5556 5554 5553 5553 5553 5552 5552 5553 5554 5555 5555 5556 5556 5557 5557 5557
5671 5658 5662 5664 5671 5673 5671 5673 5675 5666 5658 5647 5647 5641 5636 5628 5619 5609 5600 5591 5584 5578 5572 5567 5561 5556 5553 5550 5547 5545 5544 5544 5543 5543 5542 5542 5543 5544 5545 5545 5545 5545 5545 5545
5660 5657 5660 5661 5671 5673 5669 5673 5672 5668 5664 5655 5646 5638 5637 5626 5614 5603 5595 5587 5580 5574 5568 5561 5556 5551 5547 5543 5540 5538 5536 5535 5535 5534 5534 5534 5534 5534 5534 5534 5534 5534 5533 5533
5651 5650 5647 5645 5659 5662 5652 5661 5663 5661 5662 5656 5643 5636 5628 5617 5609 5600 5592 5584 5577 5570 5563 5556 5550 5545 5540 5537 5534 5531 5530 5529 5528 5527 5527 5527 5527 5526 5526 5526 5525 5524 5523 5522
5649 5645 5638 5638 5646 5637 5652 5667 5666 5659 5656 5656 5647 5635 5627 5617 5605 5596 5588 5580 5571 5564 5557 5549 5543 5538 5534 5531 5528 5526 5525 5524 5523 5522 5521 5521 5520 5519 5518 5517 5516 5515 5514 5514
5657 5647 5637 5632 5632 5639 5655 5662 5660 5651 5645 5648 5639 5628 5617 5606 5595 5584 5580 5573 5566 5558 5551 5543 5538 5533 5529 5525 5523 5521 5520 5519 5518 5516 5516 5515 5514 5512 5511 5509 5508 5507 5507 5506
5657 5650 5638 5632 5630 5630 5649 5664 5667 5653 5636 5642 5635 5623 5612 5603 5592 5582 5574 5567 5558 5550 5544 5538 5532 5528 5523 5520 5518 5516 5514 5513 5512 5511 5510 5509 5508 5507 5505 5503 5502 5501 5500 5499
5642 5641 5635 5631 5630 5638 5657 5666 5663 5639 5638 5640 5632 5622 5611 5603 5596 5585 5571 5561 5552 5545 5538 5533 5528 5523 5519 5516 5514 5511 5509 5507 5507 5507 5505 5504 5503 5501 5500 5498 5497 5496 5495 5493
5635 5632 5632 5629 5626 5634 5660 5660 5651 5646 5647 5639 5627 5618 5608 5598 5588 5577 5566 5556 5547 5540 5533 5529 5523 5519 5515 5513 5510 5507 5504 5504 5504 5502 5501 5499 5498 5498 5496 5494 5492 5491 5489 5487
5634 5634 5631 5632 5634 5648 5655 5655 5654 5651 5640 5631 5622 5612 5602 5591 5580 5570 5560 5550 5543 5536 5530 5525 5520 5515 5512 5509 5507 5503 5502 5501 5499 5497 5496 5494 5494 5492 5491 5489 5488 5486 5484 5482
5636 5640 5635 5634 5643 5648 5649 5650 5649 5645 5637 5629 5619 5608 5598 5587 5575 5565 5555 5546 5539 5532 5526 5521 5517 5512 5508 5506 5504 5502 5500 5498 5496 5494 5492 5491 5489 5487 5485 5484 5484 5482 5480 5479
5632 5636 5633 5632 5639 5642 5643 5643 5641 5636 5630 5621 5612 5603 5593 5583 5571 5562 5552 5543 5536 5530 5524 5519 5515 5510 5507 5505 5503 5501 5499 5497 5494 5492 5490 5488 5486 5483 5481 5479 5478 5478 5477 5478
5636 5637 5633 5633 5639 5636 5635 5637 5637 5630 5622 5615 5606 5595 5586 5579 5569 5559 5550 5542 5535 5529 5523 5518 5513 5510 5507 5505 5503 5501 5499 5496 5493 5491 5489 5487 5485 5482 5480 5477 5475 5476 5476 5476